Weather observations for the past three days for
Fort Sill
Imperial (Metric)
Date Time (cdt) Wind (mph) Vis. (mi.) Weather Sky Cond. Temperature (ºF) Relative Humidity Wind Chill (°F) Heat Index (°F) Pressure Precipitation (in)
Air Dwpt 6 hour altimeter (in) sea level (mb) 1 hr 3 hr 6 hr
Max. Min.
21 01:55 SE 6 10.00 Fair CLR 77.7 70.7 79% 80 30.14 1019.6
21 00:55 SE 5 10.00 Overcast OVC170 78.4 70.2 86.9 77.4 76% 81 30.14 1019.6
20 23:55 SE 6 10.00 Fair CLR 78.6 69.6 74% 81 30.13 1019.3
20 22:55 SE 3 10.00 Fair CLR 78.1 69.1 74% 80 30.12 1019.1
20 21:55 SE 5 10.00 Fair CLR 80.2 69.1 69% 83 30.12 1019.0
20 20:55 SE 6 10.00 Fair CLR 82.6 68.7 63% 86 30.11 1018.6
20 19:55 SE 7 10.00 A Few Clouds FEW180 85.3 68.7 58% 89 30.1 1018.3
20 18:55 SE 8 10.00 A Few Clouds FEW230 86.7 68 90.1 84.7 54% 90 30.09 1018.0
20 17:55 SE 9 10.00 Partly Cloudy FEW180 SCT200 86.5 68.4 55% 90 30.11 1018.7
20 16:55 SE 9 10.00 Mostly Cloudy FEW080 BKN190 87.3 67.5 52% 90 30.13 1019.3
20 15:55 E 6 10.00 Mostly Cloudy FEW180 SCT200 BKN220 89.4 66.4 47% 92 30.15 1019.9
20 14:55 E 7 10.00 Mostly Cloudy FEW050 FEW170 BKN200 BKN230 88 67.5 51% 91 30.16 1020.3
20 13:55 SE 3 10.00 Mostly Cloudy BKN044 BKN055 BKN075 86.4 68.2 55% 90 30.18 1021.0
20 12:55 SE 3 10.00 Mostly Cloudy SCT030 BKN130 85.5 71.4 85.5 72.9 63% 91 30.2 1021.7
20 11:55 SE 5 10.00 Mostly Cloudy SCT013 BKN130 83.1 70.9 67% 88 30.21 1022.1
20 10:55 SE 6 10.00 Overcast BKN013 OVC130 80.2 72.3 77% 84 30.21 1022.1
20 09:55 SE 7 10.00 Overcast BKN013 OVC130 79 71.8 79% 82 30.2 1021.8
20 08:55 SE 9 10.00 Overcast BKN013 OVC130 77 70.7 81% 79 30.19 1021.4
20 07:55 E 6 10.00 Overcast OVC120 74.1 68.9 84% 30.17 1020.8
20 06:55 NE 5 10.00 Overcast FEW055 OVC120 72.7 68.5 78.4 70.9 87% 30.15 1020.0
20 05:55 Calm 10.00 A Few Clouds FEW110 71.2 67.5 88% 30.14 1019.7
20 04:55 N 3 10.00 Fair CLR 71.8 67.3 86% 30.12 1019.0
20 03:55 E 3 10.00 Fair CLR 75.7 68.4 78% 77 30.12 1019.0
20 02:55 Calm 10.00 Mostly Cloudy BKN100 75.4 66.9 75% 77 30.12 1019.0
20 01:55 SE 5 10.00 Overcast OVC100 75.7 66 72% 77 30.13 1019.3
20 00:55 SE 6 10.00 Overcast OVC095 75.7 66.7 88 74.5 74% 77 30.14 1019.7
19 23:55 SE 8 10.00 Mostly Cloudy BKN085 75.4 66.4 74% 77 30.15 1020.1
19 22:55 E 6 10.00 Fair CLR 75.7 65.7 71% 77 30.13 1019.5
19 21:55 E 6 10.00 Partly Cloudy SCT085 77.4 65.1 66% 79 30.11 1018.7
19 19:55 SE 9 0.00 A Few Clouds FEW055 FEW085 83.8 65.3 54% 86 30.06 1016.9
18 15:55 S 22 G 28 10.00 Overcast and Breezy SCT044 OVC055 87.4 69.3 55% 92 29.79 1007.7
18 14:55 S 21 G 24 10.00 Overcast and Breezy OVC042 87.4 69.3 55% 92 29.78 1007.3
18 13:55 S 24 G 32 10.00 Partly Cloudy and Breezy SCT039 SCT170 88 69.8 55% 93 29.76 1006.6
18 12:55 S 17 G 31 10.00 Overcast BKN036 OVC044 85.1 69.6 85.3 75.9 60% 89 29.8 1008.0
18 11:55 S 16 G 26 10.00 Overcast OVC035 83.5 69.1 62% 87 29.81 1008.3
18 10:55 S 22 G 30 10.00 Overcast and Breezy OVC031 81.3 68 64% 84 29.81 1008.4
18 09:55 S 17 G 26 10.00 Overcast OVC028 80.4 68 66% 83 29.81 1008.4
18 08:55 S 18 G 26 10.00 Overcast OVC022 78.3 68 71% 80 29.8 1008.0
18 07:55 S 20 G 29 10.00 Overcast BKN022 OVC180 77 67.3 72% 79 29.78 1007.3
Date Time (cdt) Wind (mph) Vis. (mi.) Weather Sky Cond. Air Dwpt Max. Min. Relative Humidity Wind Chill (°F) Heat Index (°F) altimeter (in) sea level (mb) 1 hr 3 hr 6 hr
6 hour
Temperature (ºF) Pressure Precipitation (in)